[[{"header":{"parameterUnit":"m.s-1","parameterCategory":1,"la1":30.2991,"la2":30.254,"lo1":-89.0895,"lo2":-89.0444,"dy":0.0017,"dx":0.0017,"nx":28,"ny":28,"refTime":"2023-07-23T09:00:00:Z","depth":0,"parameterNumber":2,"parameterNumberName":"U-component_of_WINDS"},"data":[0,0,0,0,0,0,0,0,0,0,0,0,0,0,0,0,0,0,0,0,0,0,0,0,0,0,0,0,0,0,0,0,0,0,0,0,0,0,0,0,0,0,0,0,0,0,0,0,0,0,0,0,0,0,0,0,0,0,-2.4651,-2.4649,0,-2.4536,-2.4534,-2.4533,-2.4411,-2.441,-2.4408,-2.4406,-2.4288,-2.4286,-2.4284,0,0,0,0,0,0,0,0,0,0,0,0,0,-2.4767,-2.4765,-2.4651,-2.4649,-2.4648,-2.4536,-2.4534,-2.4533,-2.4412,-2.441,-2.4407,-2.4406,-2.4288,-2.4286,-2.4284,0,0,0,0,0,0,0,0,0,0,0,0,0,-2.4691,-2.4765,-2.4651,-2.4574,-2.4566,-2.4536,-2.4534,-2.4532,-2.4412,-2.4409,-2.4407,-2.4405,-2.4289,-2.4286,-2.4284,-2.4321,0,0,-2.4277,-2.4276,0,0,0,0,0,0,0,0,-2.4695,-2.4686,-2.4587,-2.4579,-2.457,-2.4485,-2.4531,-2.4461,-2.4413,-2.447,-2.4406,-2.4403,-2.4355,-2.4347,-2.4331,-2.4315,-2.431,-2.4277,-2.4275,-2.4274,-2.4274,0,0,0,0,0,0,0,-2.47,-2.4691,-2.4605,-2.4585,-2.4575,-2.4546,-2.4532,-2.4518,-2.4429,-2.4465,-2.4456,-2.4444,-2.435,-2.4334,-2.4328,-2.4308,-2.4277,-2.4275,-2.4273,-2.4272,-2.4317,-2.4319,0,0,0,0,0,0,-2.4717,-2.4696,-2.4609,-2.4602,-2.4628,-2.4546,-2.453,-2.4515,-2.4428,-2.4413,-2.4447,-2.4439,-2.4339,-2.4331,-2.4323,-2.4359,-2.4274,-2.4272,-2.4271,-2.4314,-2.4318,-2.432,0,0,0,0,0,0,-2.472,-2.4711,-2.4613,-2.4646,-2.4632,-2.4546,-2.453,-2.4514,-2.4497,-2.4414,-2.4398,-2.4446,-2.4337,-2.4326,-2.4322,-2.4353,-2.4271,-2.4269,-2.4311,-2.4315,-2.4319,-2.4433,0,0,0,0,0,0,-2.4724,-2.4713,-2.4725,-2.4647,-2.463,-2.4614,-2.4532,-2.4514,-2.4494,-2.4483,-2.4409,-2.4395,-2.4334,-2.4326,-2.432,-2.4349,-2.4267,-2.4308,-2.4313,-2.4318,-2.4426,-2.444,-2.4453,0,0,0,0,0,-2.4729,-2.4761,-2.4726,-2.4716,-2.4644,-2.4616,-2.4607,-2.4536,-2.4497,-2.4509,-2.4456,-2.4397,-2.4352,-2.4327,-2.4319,-2.4347,-2.4306,-2.4312,-2.4317,-2.442,-2.4437,-2.4452,0,0,0,0,0,0,-2.4843,-2.4749,-2.4709,-2.4718,-2.4676,-2.4596,-2.4608,-2.4557,-2.4525,-2.4516,-2.443,-2.4415,-2.4421,-2.4384,-2.4358,-2.4379,-2.4321,-2.4325,-2.4402,-2.4417,-2.4431,-2.4438,-2.4265,0,0,0,0,0,-2.487,-2.4855,-2.4774,-2.479,-2.4771,-2.4694,-2.4679,-2.4629,-2.4582,-2.4564,-2.451,-2.4467,-2.4443,-2.4429,-2.4402,-2.4422,-2.4404,-2.4437,-2.4451,-2.4462,-2.4466,-2.4474,-2.4487,-2.434,-2.434,-2.4339,0,0,-2.4924,-2.4871,-2.4866,-2.4811,-2.4773,-2.476,-2.468,-2.4669,-2.4658,-2.4562,-2.4554,-2.4515,-2.4461,-2.4469,-2.447,-2.4438,-2.4504,-2.447,-2.4479,-2.4477,-2.4481,-2.4495,-2.4508,-2.4344,-2.4343,-2.4342,0,0,-2.5014,-2.4974,-2.4982,-2.4946,-2.489,-2.4839,-2.4842,-2.477,-2.4739,-2.4731,-2.4659,-2.4646,-2.4607,-2.4571,-2.4548,-2.4631,-2.4575,-2.4625,-2.4693,-2.4701,-2.4713,-2.4723,-2.4751,-2.4762,-2.463,-2.463,-2.463,0,-2.5088,-2.5065,-2.4992,-2.4986,-2.4964,-2.4879,-2.4886,-2.4855,-2.4793,-2.478,-2.4747,-2.4697,-2.4655,-2.4653,-2.4674,-2.4659,-2.4658,-2.463,-2.4717,-2.4726,-2.4734,-2.476,-2.4771,-2.4636,-2.4635,-2.4635,-2.4634,0,-2.5158,-2.5144,-2.5157,-2.51,-2.508,-2.5081,-2.5009,-2.4998,-2.4952,-2.4905,-2.4898,-2.4846,-2.4807,-2.4804,-2.4758,-2.4797,-2.4779,-2.4733,-2.4672,-2.4756,-2.4778,-2.4788,-2.4645,-2.4643,-2.4641,-2.4639,0,0,-2.5312,-2.5218,-2.5224,-2.5198,-2.5131,-2.5119,-2.5118,-2.5081,-2.5072,-2.5034,-2.503,-2.5001,-2.4958,-2.4933,-2.4883,-2.4891,-2.4958,-2.4843,-2.4841,-2.4865,-2.4997,-2.503,-2.5042,-2.4923,-2.4925,-2.4926,-2.5001,0,-2.5389,-2.538,-2.5316,-2.5325,-2.5311,-2.5233,-2.5231,-2.5191,-2.5149,-2.5131,-2.5084,-2.5064,-2.5011,-2.4994,-2.4999,-2.4949,-2.4983,-2.4943,-2.4917,-2.4917,-2.493,-2.5054,-2.5088,-2.5161,-2.501,-2.5011,-2.5012,0,-2.5476,-2.5444,-2.5452,-2.5388,-2.5379,-2.5379,-2.5341,-2.5326,-2.5279,-2.5248,-2.5222,-2.5166,-2.516,-2.5107,-2.5098,-2.5073,-2.5059,-2.5034,-2.5035,-2.5026,-2.4967,-2.5047,-2.5182,-2.5193,-2.5026,-2.5024,-2.5023,0,-2.5585,-2.5545,-2.5544,-2.5525,-2.545,-2.5452,-2.5421,-2.5372,-2.5355,-2.5322,-2.531,-2.5278,-2.526,-2.5237,-2.5174,-2.5141,-2.5173,-2.5114,-2.5145,-2.5147,-2.5152,-2.5152,-2.5284,-2.5149,-2.5149,-2.5149,-2.5149,0,-2.5676,-2.5683,-2.5593,-2.5592,-2.5599,-2.5528,-2.5536,-2.5498,-2.5456,-2.5447,-2.5378,-2.5371,-2.5291,-2.5275,-2.5227,-2.5227,-2.522,-2.5194,-2.518,-2.5198,-2.5201,-2.5185,-2.5177,-2.5152,-2.5151,-2.5151,-2.515,0,-2.5796,-2.5736,-2.573,-2.5662,-2.5645,-2.5653,-2.5594,-2.5591,-2.5546,-2.5536,-2.5529,-2.5459,-2.5437,-2.5374,-2.5336,-2.5304,-2.5317,-2.5293,-2.5332,-2.5323,-2.5357,-2.5354,-2.5481,-2.5494,-2.5355,-2.5356,-2.5357,0,-2.5856,-2.586,-2.5793,-2.5782,-2.5754,-2.5738,-2.572,-2.5652,-2.5637,-2.5586,-2.559,-2.5563,-2.5537,-2.5507,-2.5452,-2.5423,-2.5397,-2.5444,-2.5392,-2.541,-2.5395,-2.5394,-2.5393,-2.5454,-2.5456,-2.5457,-2.5458,0,-2.5967,-2.5939,-2.5916,-2.5884,-2.5866,-2.5837,-2.5805,-2.58,-2.5724,-2.571,-2.5688,-2.5668,-2.5631,-2.5605,-2.5568,-2.5537,-2.5485,-2.5476,-2.5481,-2.5497,-2.5519,-2.5506,-2.536,-2.5472,-2.5471,-2.547,-2.5469,-2.5469,-2.6057,-2.6057,-2.601,-2.5988,-2.5958,-2.593,-2.5923,-2.588,-2.586,-2.5824,-2.5786,-2.5768,-2.5724,-2.5669,-2.5642,-2.5627,-2.5599,-2.5607,-2.5609,-2.5611,-2.5619,-2.5525,-2.5621,-2.562,-2.562,-2.5619,-2.5619,0,-2.6163,-2.613,-2.6111,-2.6068,-2.6051,-2.6007,-2.597,-2.5958,-2.5943,-2.5907,-2.5884,-2.5859,-2.5835,-2.5781,-2.5752,-2.575,-2.5726,-2.5745,-2.5742,-2.5735,-2.5646,-2.5643,-2.5765,-2.5765,-2.5765,-2.5765,-2.5765,-2.5765,-2.6215,-2.6213,-2.618,-2.6162,-2.6129,-2.6111,-2.6094,-2.6068,-2.6039,-2.6014,-2.5994,-2.596,-2.5916,-2.5884,-2.586,-2.5845,-2.5836,-2.5862,-2.5839,-2.5756,-2.5742,-2.5728,-2.5725,-2.5862,-2.5862,-2.5929,-2.593,-2.593]},{"header":{"parameterUnit":"m.s-1","parameterCategory":1,"la1":30.2991,"la2":30.254,"lo1":-89.0895,"lo2":-89.0444,"dy":0.0017,"dx":0.0017,"nx":28,"ny":28,"refTime":"2023-07-23T09:00:00:Z","depth":0,"parameterNumber":3,"parameterNumberName":"V-component_of_WINDS"},"data":[0,0,0,0,0,0,0,0,0,0,0,0,0,0,0,0,0,0,0,0,0,0,0,0,0,0,0,0,0,0,0,0,0,0,0,0,0,0,0,0,0,0,0,0,0,0,0,0,0,0,0,0,0,0,0,0,0,0,2.0871,2.0871,0,2.0903,2.0904,2.0904,2.0929,2.093,2.093,2.093,2.0961,2.0961,2.0962,0,0,0,0,0,0,0,0,0,0,0,0,0,2.0829,2.083,2.0871,2.0871,2.0872,2.0903,2.0904,2.0904,2.0929,2.093,2.093,2.093,2.0961,2.0961,2.0962,0,0,0,0,0,0,0,0,0,0,0,0,0,2.0853,2.083,2.0871,2.0888,2.089,2.0903,2.0904,2.0904,2.0929,2.093,2.093,2.093,2.096,2.0961,2.0962,2.096,0,0,2.0965,2.0965,0,0,0,0,0,0,0,0,2.0852,2.0855,2.0885,2.0887,2.0889,2.0913,2.09,2.0923,2.0929,2.0914,2.093,2.093,2.0944,2.0947,2.0952,2.0961,2.0963,2.0965,2.0965,2.0966,2.0966,0,0,0,0,0,0,0,2.085,2.0853,2.0884,2.0886,2.0888,2.0894,2.0898,2.0905,2.0927,2.0916,2.0917,2.0921,2.0945,2.0951,2.0953,2.0963,2.0965,2.0966,2.0966,2.0966,2.0974,2.0973,0,0,0,0,0,0,2.0846,2.0852,2.0883,2.0885,2.0871,2.0894,2.0898,2.0905,2.0927,2.093,2.0921,2.0922,2.0949,2.0952,2.0954,2.0953,2.0966,2.0967,2.0967,2.0974,2.0974,2.0973,0,0,0,0,0,0,2.0845,2.0848,2.0881,2.0869,2.0873,2.0895,2.0901,2.0905,2.0911,2.0931,2.0934,2.0922,2.095,2.0953,2.0959,2.0955,2.0967,2.0968,2.0974,2.0974,2.0973,2.0952,0,0,0,0,0,0,2.0844,2.0848,2.0848,2.0869,2.0874,2.0886,2.0901,2.0905,2.0912,2.0914,2.0933,2.0937,2.095,2.0957,2.0959,2.0956,2.0968,2.0975,2.0974,2.0974,2.0953,2.095,2.0948,0,0,0,0,0,2.0842,2.0839,2.0847,2.0851,2.0874,2.0886,2.0889,2.0905,2.0912,2.0912,2.0925,2.0936,2.0955,2.0958,2.096,2.0957,2.0975,2.0974,2.0974,2.0954,2.0951,2.0948,0,0,0,0,0,0,2.0816,2.0842,2.0852,2.0856,2.0868,2.089,2.089,2.0901,2.0911,2.0913,2.0932,2.0936,2.094,2.0949,2.0952,2.0957,2.0966,2.0966,2.095,2.0948,2.0946,2.0943,2.0969,0,0,0,0,0,2.0811,2.0819,2.0841,2.0843,2.0849,2.0868,2.0874,2.0886,2.0899,2.0904,2.0918,2.093,2.0939,2.0944,2.0953,2.0955,2.0959,2.0954,2.0952,2.095,2.0949,2.0951,2.0949,2.0971,2.0971,2.0971,0,0,2.08,2.0816,2.0819,2.0838,2.0849,2.0856,2.0872,2.0879,2.0885,2.0905,2.0912,2.0922,2.0937,2.0941,2.0943,2.0949,2.0944,2.0949,2.0947,2.0947,2.095,2.0948,2.0946,2.097,2.097,2.097,0,0,2.0784,2.0797,2.08,2.0811,2.0828,2.0841,2.0842,2.0862,2.087,2.0878,2.0894,2.09,2.0915,2.0925,2.0932,2.0922,2.0932,2.0924,2.0912,2.0914,2.0912,2.0911,2.0907,2.0905,2.0923,2.0923,2.0923,0,2.0768,2.078,2.0799,2.0806,2.0813,2.0834,2.0837,2.0847,2.0865,2.087,2.0876,2.0896,2.0907,2.0914,2.0912,2.0917,2.0918,2.0921,2.0911,2.091,2.0909,2.0905,2.0904,2.0922,2.0922,2.0923,2.0923,0,2.076,2.0768,2.0768,2.0788,2.0796,2.08,2.082,2.0825,2.0837,2.0849,2.0857,2.0872,2.0884,2.0887,2.0898,2.0896,2.0899,2.0908,2.0918,2.0905,2.0902,2.0901,2.0921,2.0921,2.0921,2.0922,0,0,2.0727,2.0758,2.0757,2.0767,2.0788,2.0795,2.08,2.0814,2.0819,2.0831,2.0836,2.0849,2.0858,2.0866,2.0878,2.088,2.0871,2.0889,2.089,2.0885,2.087,2.0862,2.0861,2.0879,2.0879,2.0879,2.0869,0,2.0714,2.0726,2.0744,2.075,2.0758,2.0778,2.0783,2.0796,2.0809,2.0817,2.083,2.0839,2.085,2.0855,2.0858,2.0871,2.0868,2.0873,2.0883,2.0883,2.0878,2.0859,2.0851,2.0841,2.0868,2.0867,2.0867,0,2.07,2.0713,2.072,2.0742,2.0746,2.075,2.0764,2.0772,2.0788,2.0797,2.0807,2.082,2.0827,2.0837,2.0847,2.085,2.0855,2.0863,2.0863,2.0864,2.0874,2.0859,2.0838,2.0836,2.0866,2.0866,2.0866,0,2.0675,2.0694,2.0701,2.0708,2.0734,2.0736,2.0747,2.0763,2.0771,2.0783,2.0788,2.0801,2.0808,2.0818,2.0834,2.084,2.0842,2.0853,2.0849,2.0849,2.0848,2.0848,2.0827,2.0853,2.0853,2.0853,2.0853,0,2.0658,2.0661,2.069,2.0694,2.0699,2.072,2.0724,2.0736,2.0751,2.0757,2.0776,2.0781,2.0804,2.0812,2.0825,2.0831,2.0834,2.0841,2.0844,2.0839,2.0838,2.0842,2.0843,2.0852,2.0852,2.0852,2.0852,0,2.063,2.0649,2.0658,2.0683,2.0689,2.0691,2.0712,2.0716,2.0731,2.0739,2.0742,2.0764,2.0775,2.0793,2.0808,2.0817,2.0821,2.0827,2.0816,2.0818,2.0812,2.0813,2.0793,2.0792,2.0818,2.0818,2.0818,0,2.0617,2.0621,2.0646,2.0652,2.0663,2.0673,2.0681,2.0702,2.071,2.0729,2.0731,2.0744,2.0755,2.0771,2.0788,2.08,2.0807,2.0799,2.0808,2.0803,2.0806,2.0805,2.0806,2.0796,2.0796,2.0796,2.0795,0,2.0593,2.0603,2.0615,2.063,2.064,2.0652,2.0666,2.067,2.0694,2.0702,2.0714,2.0722,2.074,2.0752,2.0767,2.0777,2.079,2.0793,2.0792,2.0787,2.078,2.0783,2.0809,2.0793,2.0793,2.0793,2.0793,2.0793,2.0573,2.0577,2.0596,2.0608,2.0621,2.0634,2.064,2.0655,2.0666,2.0682,2.0694,2.0705,2.0722,2.0744,2.0754,2.0763,2.0768,2.0768,2.0768,2.0767,2.0765,2.0779,2.0765,2.0765,2.0766,2.0766,2.0766,0,2.0549,2.0563,2.0574,2.0593,2.0603,2.0616,2.0632,2.0639,2.065,2.0665,2.0676,2.069,2.0702,2.0721,2.0734,2.0738,2.0744,2.0741,2.074,2.0743,2.0759,2.0758,2.0736,2.0736,2.0736,2.0736,2.0736,2.0736,2.0538,2.0546,2.0559,2.0573,2.0587,2.0599,2.0607,2.0619,2.0631,2.0646,2.0657,2.067,2.0686,2.0702,2.0713,2.0719,2.0723,2.0717,2.0724,2.0739,2.0741,2.0744,2.0743,2.0718,2.0718,2.0707,2.0707,2.0707]}]]